Total_Precipitation_Accumulation
0.15 0.16 0.20 0.22 0.22 0.22 0.25 0.31 0.34 0.42 0.50 0.58 0.73 0.95 1.22 1.33 1.43 1.39 1.21 1.16 1.28 1.52 1.72 1.68 1.72 1.73 1.58 1.51 1.58 1.75 1.68 1.39 1.14 1.09 0.91 0.76 0.63 0.70 0.67 0.61 0.61 0.60 0.65
0.10 0.09 0.10 0.13 0.15 0.16 0.17 0.22 0.30 0.39 0.48 0.57 0.75 0.91 1.06 1.07 1.24 1.40 1.38 1.30 1.29 1.43 1.57 1.82 1.89 1.81 1.80 1.91 1.94 2.22 2.32 1.89 1.48 1.41 1.46 1.19 0.99 0.74 0.58 0.58 0.56 0.59 0.77
0.09 0.08 0.07 0.08 0.09 0.10 0.12 0.15 0.22 0.32 0.45 0.61 0.85 1.07 1.26 1.34 1.41 1.34 1.43 1.44 1.37 1.41 1.50 1.66 1.81 1.81 1.86 1.92 2.04 2.35 2.75 2.46 1.97 1.74 1.86 1.52 1.32 1.15 0.74 0.56 0.55 0.61 0.77
0.10 0.08 0.07 0.07 0.08 0.08 0.09 0.12 0.20 0.35 0.56 0.78 1.04 1.30 1.50 1.54 1.43 1.48 1.51 1.39 1.33 1.30 1.37 1.50 1.63 1.75 1.76 1.87 1.96 2.07 2.50 2.76 2.44 2.17 1.83 1.49 1.37 1.41 1.18 0.80 0.65 0.69 0.73
0.14 0.13 0.11 0.13 0.13 0.14 0.16 0.23 0.43 0.68 0.93 1.14 1.41 1.70 1.70 1.59 1.50 1.50 1.47 1.42 1.43 1.40 1.39 1.53 1.59 1.59 1.65 1.74 2.05 2.30 2.54 2.69 2.59 2.48 2.32 2.07 1.74 1.33 1.36 1.29 0.99 0.86 0.79
0.22 0.27 0.31 0.37 0.41 0.44 0.58 0.79 1.05 1.24 1.33 1.46 1.61 1.73 1.71 1.72 1.67 1.49 1.39 1.39 1.43 1.49 1.53 1.59 1.58 1.54 1.57 1.67 1.88 2.14 2.35 2.62 2.76 2.63 2.42 2.27 2.06 1.77 1.59 1.37 1.26 1.19 0.99
0.34 0.45 0.61 0.74 0.84 0.96 1.08 1.22 1.42 1.56 1.50 1.47 1.52 1.56 1.57 1.57 1.56 1.50 1.40 1.35 1.36 1.37 1.41 1.52 1.64 1.70 1.72 1.83 1.99 2.11 2.02 2.23 2.58 2.53 2.37 2.26 2.00 1.93 1.91 1.72 1.46 1.29 1.00
0.52 0.63 0.72 0.83 1.00 1.14 1.19 1.19 1.30 1.40 1.36 1.33 1.31 1.28 1.34 1.37 1.34 1.26 1.25 1.28 1.35 1.33 1.27 1.32 1.43 1.56 1.71 1.75 1.81 1.81 1.77 1.89 2.11 2.17 2.32 2.41 2.15 1.95 1.78 1.67 1.67 1.41 1.17
0.79 0.94 1.04 1.17 1.21 1.25 1.30 1.22 1.21 1.25 1.25 1.17 1.09 1.09 1.15 1.20 1.23 1.18 1.19 1.17 1.17 1.09 1.02 1.02 1.06 1.13 1.20 1.27 1.43 1.53 1.63 1.66 1.77 1.90 2.02 2.17 2.27 2.16 1.90 1.78 1.71 1.61 1.39
1.03 1.32 1.57 1.74 1.57 1.30 1.18 1.13 1.06 1.06 1.14 1.11 1.04 1.01 1.10 1.11 1.10 1.13 1.10 1.10 1.09 1.01 0.93 0.89 0.85 0.82 0.78 0.82 1.00 1.19 1.31 1.42 1.56 1.73 1.84 1.87 1.94 2.12 2.07 1.87 1.81 1.69 1.49
1.19 1.34 1.54 1.71 1.60 1.29 1.05 1.05 1.06 1.01 0.99 0.99 1.01 1.00 0.99 0.90 0.89 0.94 0.95 0.94 0.95 0.99 0.96 0.88 0.82 0.89 0.88 0.83 0.88 0.95 1.01 1.09 1.22 1.36 1.47 1.60 1.86 2.16 2.19 2.13 1.99 1.83 1.64
1.10 1.09 1.14 1.20 1.21 1.06 0.87 0.83 0.96 1.01 0.95 0.92 0.95 0.94 0.85 0.81 0.77 0.76 0.73 0.66 0.64 0.67 0.75 0.83 0.79 0.77 0.79 0.81 0.86 0.89 0.93 0.95 1.03 1.11 1.22 1.36 1.65 2.02 2.24 2.33 2.22 2.04 1.87
1.07 1.03 0.95 0.89 0.91 0.88 0.80 0.77 0.89 1.03 1.05 1.00 0.86 0.78 0.74 0.71 0.69 0.61 0.57 0.55 0.50 0.50 0.54 0.63 0.64 0.72 0.79 0.81 0.83 0.85 0.88 0.90 0.99 1.13 1.17 1.20 1.36 1.57 1.81 2.00 2.11 2.10 2.07
0.77 0.71 0.66 0.61 0.60 0.63 0.67 0.73 0.83 0.91 1.02 1.12 1.01 0.86 0.77 0.70 0.64 0.57 0.54 0.51 0.49 0.52 0.58 0.70 0.74 0.69 0.67 0.72 0.82 0.86 0.80 0.80 0.85 0.94 1.02 1.10 1.12 1.24 1.41 1.54 1.73 1.94 2.15
0.38 0.37 0.36 0.34 0.33 0.33 0.34 0.44 0.55 0.71 0.89 1.09 1.07 0.92 0.86 0.78 0.65 0.60 0.60 0.58 0.61 0.57 0.59 0.70 0.80 0.87 0.82 0.79 0.87 0.84 0.82 0.83 0.81 0.87 0.87 0.92 0.93 0.95 1.10 1.17 1.40 1.72 1.98
0.25 0.24 0.22 0.20 0.16 0.14 0.16 0.17 0.25 0.42 0.59 0.75 0.81 0.77 0.69 0.61 0.58 0.57 0.55 0.52 0.51 0.47 0.47 0.51 0.58 0.67 0.72 0.92 0.87 0.71 0.69 0.74 0.80 0.85 0.85 0.86 0.80 0.77 0.79 0.90 1.04 1.34 1.55
0.19 0.18 0.19 0.18 0.17 0.16 0.14 0.14 0.17 0.24 0.35 0.47 0.56 0.55 0.49 0.43 0.40 0.45 0.45 0.43 0.39 0.40 0.38 0.37 0.37 0.44 0.59 0.67 0.51 0.49 0.56 0.70 0.80 0.86 0.89 0.85 0.81 0.84 0.83 0.80 0.79 0.88 1.08
0.18 0.17 0.16 0.15 0.13 0.12 0.11 0.11 0.14 0.17 0.18 0.22 0.26 0.27 0.28 0.27 0.29 0.31 0.32 0.33 0.32 0.30 0.29 0.36 0.44 0.46 0.47 0.53 0.43 0.42 0.53 0.72 0.84 0.83 0.79 0.85 0.86 0.89 0.94 0.84 0.86 0.81 0.83
0.09 0.08 0.07 0.06 0.05 0.04 0.04 0.04 0.05 0.05 0.05 0.06 0.08 0.10 0.12 0.14 0.17 0.18 0.21 0.30 0.33 0.34 0.37 0.48 0.56 0.49 0.41 0.45 0.46 0.51 0.67 0.79 0.87 0.83 0.82 0.89 0.91 1.03 1.06 0.95 0.99 0.94 0.90
0.02 0.02 0.01 0.01 0.01 0.00 0.00 0.00 0.00 0.00 0.00 0.00 0.00 0.01 0.02 0.02 0.05 0.08 0.11 0.17 0.24 0.31 0.38 0.41 0.38 0.38 0.44 0.50 0.49 0.60 0.79 0.91 1.01 0.97 0.96 1.13 1.06 1.01 0.95 0.91 1.05 1.02 0.87
0.00 0.00 0.00 0.00 0.00 0.00 0.00 0.00 0.00 0.00 0.00 0.00 0.00 0.00 0.00 0.00 0.01 0.02 0.03 0.06 0.11 0.15 0.17 0.19 0.22 0.29 0.45 0.51 0.53 0.72 0.81 0.87 1.02 1.05 1.01 0.94 1.05 0.97 0.88 0.87 0.91 1.04 0.91
0.00 0.00 0.00 0.00 0.00 0.00 0.00 0.00 0.00 0.00 0.00 0.00 0.00 0.00 0.00 0.00 0.01 0.02 0.02 0.02 0.04 0.07 0.10 0.12 0.17 0.22 0.30 0.37 0.43 0.56 0.68 0.75 0.93 1.01 0.92 0.82 1.03 0.97 0.86 0.78 0.79 0.91 0.96
0.00 0.00 0.00 0.00 0.00 0.00 0.00 0.00 0.00 0.00 0.00 0.00 0.00 0.00 0.00 0.01 0.01 0.01 0.02 0.02 0.03 0.06 0.07 0.12 0.18 0.24 0.28 0.28 0.34 0.42 0.50 0.62 0.80 0.86 0.87 0.88 0.90 0.81 0.77 0.85 0.86 0.86 0.88
0.00 0.00 0.00 0.00 0.00 0.00 0.00 0.00 0.00 0.00 0.00 0.00 0.00 0.00 0.01 0.01 0.01 0.01 0.02 0.02 0.03 0.05 0.09 0.15 0.21 0.25 0.28 0.28 0.34 0.42 0.46 0.56 0.64 0.66 0.70 0.74 0.70 0.69 0.73 0.78 0.86 0.88 0.91
0.00 0.00 0.00 0.01 0.00 0.00 0.00 0.00 0.00 0.00 0.00 0.00 0.00 0.00 0.01 0.02 0.02 0.01 0.01 0.02 0.02 0.05 0.10 0.14 0.17 0.18 0.20 0.24 0.30 0.41 0.49 0.60 0.70 0.71 0.66 0.68 0.68 0.67 0.66 0.69 0.71 0.73 0.71
0.00 0.00 0.00 0.00 0.00 0.00 0.00 0.00 0.00 0.00 0.00 0.00 0.00 0.00 0.01 0.02 0.02 0.03 0.02 0.02 0.01 0.02 0.04 0.05 0.09 0.14 0.17 0.14 0.15 0.24 0.38 0.54 0.74 0.95 0.98 0.99 0.93 0.83 0.72 0.62 0.54 0.50 0.52